Time,TemperatureF,DewpointF,PressureIn,WindDirection,WindDirectionDegrees,WindSpeedMPH,WindSpeedGustMPH,Humidity,HourlyPrecipIn,Conditions,Clouds,dailyrainin,SoftwareType,DateUTC
2013-03-12 00:03:00,41.0,35.0,-100.00,NNW,329,3.0,8.0,78,0.00,,,0.77,,2013-03-12 04:03:00,
2013-03-12 00:13:00,41.0,35.0,-100.00,NNW,329,3.0,8.0,78,0.00,,,0.77,,2013-03-12 04:13:00,
2013-03-12 00:43:00,40.0,33.0,-100.00,ENE,64,2.0,10.0,75,0.00,,,0.77,,2013-03-12 04:43:00,
2013-03-12 00:52:00,40.0,33.0,-100.00,ENE,64,2.0,10.0,75,0.00,,,0.77,,2013-03-12 04:52:00,
2013-03-12 01:03:00,40.0,33.0,-100.00,ENE,64,2.0,10.0,75,0.00,,,0.77,,2013-03-12 05:03:00,
2013-03-12 01:12:00,40.0,33.0,-100.00,ENE,64,2.0,10.0,75,0.00,,,0.77,,2013-03-12 05:12:00,
2013-03-12 01:32:00,40.0,34.0,-100.00,NNE,32,2.0,6.0,78,0.00,,,0.77,,2013-03-12 05:32:00,
2013-03-12 01:42:00,40.0,34.0,-100.00,NNE,32,2.0,6.0,78,0.00,,,0.77,,2013-03-12 05:42:00,
2013-03-12 01:52:00,40.0,34.0,-100.00,NNE,32,2.0,6.0,78,0.00,,,0.77,,2013-03-12 05:52:00,
2013-03-12 02:02:00,40.0,34.0,-100.00,NNE,32,2.0,6.0,78,0.00,,,0.77,,2013-03-12 06:02:00,
2013-03-12 02:12:00,40.0,34.0,-100.00,NNE,32,2.0,6.0,78,0.00,,,0.77,,2013-03-12 06:12:00,
2013-03-12 02:42:00,39.0,32.0,-100.00,WNW,283,2.0,7.0,75,0.00,,,0.77,,2013-03-12 06:42:00,
2013-03-12 02:52:00,39.0,32.0,-100.00,WNW,283,2.0,7.0,75,0.00,,,0.77,,2013-03-12 06:52:00,
2013-03-12 03:02:00,39.0,32.0,-100.00,WNW,283,2.0,7.0,75,0.00,,,0.77,,2013-03-12 07:02:00,
2013-03-12 03:12:00,39.0,32.0,-100.00,WNW,283,2.0,7.0,75,0.00,,,0.77,,2013-03-12 07:12:00,
2013-03-12 03:32:00,38.0,30.0,-100.00,NNW,339,2.0,7.0,74,0.00,,,0.77,,2013-03-12 07:32:00,
2013-03-12 03:42:00,38.0,30.0,-100.00,NNW,339,2.0,7.0,74,0.00,,,0.77,,2013-03-12 07:42:00,
2013-03-12 03:53:00,38.0,30.0,-100.00,NNW,339,2.0,7.0,74,0.00,,,0.77,,2013-03-12 07:53:00,
2013-03-12 04:02:00,38.0,30.0,-100.00,NNW,339,2.0,7.0,74,0.00,,,0.77,,2013-03-12 08:02:00,
2013-03-12 04:13:00,38.0,30.0,-100.00,NNW,339,2.0,7.0,74,0.00,,,0.77,,2013-03-12 08:13:00,
2013-03-12 04:42:00,38.0,32.0,-100.00,NNE,17,3.0,6.0,79,0.00,,,0.77,,2013-03-12 08:42:00,
2013-03-12 04:52:00,38.0,32.0,-100.00,NNE,17,3.0,6.0,79,0.00,,,0.77,,2013-03-12 08:52:00,
2013-03-12 05:03:00,38.0,32.0,-100.00,NNE,17,3.0,6.0,79,0.00,,,0.77,,2013-03-12 09:03:00,
2013-03-12 05:12:00,38.0,32.0,-100.00,NNE,17,3.0,6.0,79,0.00,,,0.77,,2013-03-12 09:12:00,
2013-03-12 05:43:00,36.0,31.0,-100.00,NNE,33,3.0,10.0,82,0.00,,,0.77,,2013-03-12 09:43:00,
2013-03-12 05:53:00,36.0,31.0,-100.00,NNE,33,3.0,10.0,82,0.00,,,0.77,,2013-03-12 09:53:00,
2013-03-12 06:02:00,36.0,31.0,-100.00,NNE,33,3.0,10.0,82,0.00,,,0.77,,2013-03-12 10:02:00,
2013-03-12 06:12:00,36.0,31.0,-100.00,NNE,33,3.0,10.0,82,0.00,,,0.77,,2013-03-12 10:12:00,
2013-03-12 06:33:00,35.0,32.0,-100.00,NNW,327,1.0,5.0,89,0.01,,,0.78,,2013-03-12 10:33:00,
2013-03-12 06:42:00,35.0,32.0,-100.00,NNW,327,1.0,5.0,89,0.01,,,0.78,,2013-03-12 10:42:00,
2013-03-12 06:53:00,35.0,32.0,-100.00,NNW,327,1.0,5.0,89,0.01,,,0.78,,2013-03-12 10:53:00,
2013-03-12 07:02:00,35.0,32.0,-100.00,NNW,327,1.0,5.0,89,0.01,,,0.78,,2013-03-12 11:02:00,
2013-03-12 07:12:00,35.0,32.0,-100.00,NNW,327,1.0,5.0,89,0.01,,,0.78,,2013-03-12 11:12:00,
2013-03-12 07:33:00,35.0,31.0,-100.00,WSW,247,2.0,3.0,86,0.00,,,0.78,,2013-03-12 11:33:00,
2013-03-12 07:42:00,35.0,31.0,-100.00,WSW,247,2.0,3.0,86,0.00,,,0.78,,2013-03-12 11:42:00,
2013-03-12 07:52:00,35.0,31.0,-100.00,WSW,247,2.0,3.0,86,0.00,,,0.78,,2013-03-12 11:52:00,
2013-03-12 08:03:00,35.0,31.0,-100.00,WSW,247,2.0,3.0,86,0.00,,,0.78,,2013-03-12 12:03:00,
2013-03-12 08:12:00,35.0,31.0,-100.00,WSW,247,2.0,3.0,86,0.00,,,0.78,,2013-03-12 12:12:00,
2013-03-12 08:42:00,35.0,30.0,-100.00,SW,226,2.0,5.0,83,0.00,,,0.78,,2013-03-12 12:42:00,
2013-03-12 08:52:00,35.0,30.0,-100.00,SW,226,2.0,5.0,83,0.00,,,0.78,,2013-03-12 12:52:00,
2013-03-12 09:02:00,35.0,30.0,-100.00,SW,226,2.0,5.0,83,0.00,,,0.78,,2013-03-12 13:02:00,
2013-03-12 09:12:00,35.0,30.0,-100.00,SW,226,2.0,5.0,83,0.00,,,0.78,,2013-03-12 13:12:00,
2013-03-12 09:43:00,35.0,28.0,-100.00,SW,229,2.0,7.0,75,0.00,,,0.78,,2013-03-12 13:43:00,
2013-03-12 09:52:00,35.0,28.0,-100.00,SW,229,2.0,7.0,75,0.00,,,0.78,,2013-03-12 13:52:00,
2013-03-12 10:02:00,35.0,28.0,-100.00,SW,229,2.0,7.0,75,0.00,,,0.78,,2013-03-12 14:02:00,
2013-03-12 10:12:00,35.0,28.0,-100.00,SW,229,2.0,7.0,75,0.00,,,0.78,,2013-03-12 14:12:00,
2013-03-12 10:33:00,36.0,29.0,-100.00,West,267,3.0,8.0,75,0.00,,,0.78,,2013-03-12 14:33:00,
2013-03-12 10:43:00,36.0,29.0,-100.00,West,267,3.0,8.0,75,0.00,,,0.78,,2013-03-12 14:43:00,
2013-03-12 10:53:00,36.0,29.0,-100.00,West,267,3.0,8.0,75,0.00,,,0.78,,2013-03-12 14:53:00,
2013-03-12 11:03:00,36.0,29.0,-100.00,West,267,3.0,8.0,75,0.00,,,0.78,,2013-03-12 15:03:00,
2013-03-12 11:13:00,36.0,29.0,-100.00,West,267,3.0,8.0,75,0.00,,,0.78,,2013-03-12 15:13:00,
2013-03-12 11:43:00,36.0,28.0,-100.00,WNW,302,3.0,7.0,72,0.00,,,0.72,,2013-03-12 15:43:00,
2013-03-12 11:53:00,36.0,28.0,-100.00,WNW,302,3.0,7.0,72,0.00,,,0.72,,2013-03-12 15:53:00,
2013-03-12 12:03:00,36.0,28.0,-100.00,WNW,302,3.0,7.0,72,0.00,,,0.72,,2013-03-12 16:03:00,
2013-03-12 12:12:00,36.0,28.0,-100.00,WNW,302,3.0,7.0,72,0.00,,,0.72,,2013-03-12 16:12:00,
2013-03-12 12:43:00,37.0,28.0,-100.00,WNW,295,4.0,9.0,71,0.00,,,0.61,,2013-03-12 16:43:00,
2013-03-12 12:53:00,37.0,28.0,-100.00,WNW,295,4.0,9.0,71,0.00,,,0.61,,2013-03-12 16:53:00,
2013-03-12 13:03:00,37.0,28.0,-100.00,WNW,295,4.0,9.0,71,0.00,,,0.61,,2013-03-12 17:03:00,
2013-03-12 13:13:00,37.0,28.0,-100.00,WNW,295,4.0,9.0,71,0.00,,,0.61,,2013-03-12 17:13:00,
2013-03-12 13:44:00,40.0,30.0,-100.00,WNW,299,4.0,8.0,66,0.00,,,0.40,,2013-03-12 17:44:00,
2013-03-12 13:54:00,40.0,30.0,-100.00,WNW,299,4.0,8.0,66,0.00,,,0.40,,2013-03-12 17:54:00,
2013-03-12 14:03:00,40.0,30.0,-100.00,WNW,299,4.0,8.0,66,0.00,,,0.40,,2013-03-12 18:03:00,
2013-03-12 14:13:00,40.0,30.0,-100.00,WNW,299,4.0,8.0,66,0.00,,,0.40,,2013-03-12 18:13:00,
2013-03-12 14:43:00,45.0,32.0,-100.00,WNW,295,6.0,13.0,59,0.00,,,0.22,,2013-03-12 18:43:00,
2013-03-12 14:53:00,45.0,32.0,-100.00,WNW,295,6.0,13.0,59,0.00,,,0.22,,2013-03-12 18:53:00,
2013-03-12 15:04:00,45.0,32.0,-100.00,WNW,295,6.0,13.0,59,0.00,,,0.22,,2013-03-12 19:04:00,
2013-03-12 15:13:00,45.0,32.0,-100.00,WNW,295,6.0,13.0,59,0.00,,,0.22,,2013-03-12 19:13:00,
2013-03-12 15:44:00,46.0,30.0,-100.00,NNW,340,5.0,15.0,53,0.00,,,0.15,,2013-03-12 19:44:00,
2013-03-12 15:53:00,46.0,30.0,-100.00,NNW,340,5.0,15.0,53,0.00,,,0.15,,2013-03-12 19:53:00,
2013-03-12 16:02:00,46.0,30.0,-100.00,NNW,340,5.0,15.0,53,0.00,,,0.15,,2013-03-12 20:02:00,
2013-03-12 16:13:00,46.0,30.0,-100.00,NNW,340,5.0,15.0,53,0.00,,,0.15,,2013-03-12 20:13:00,
2013-03-12 16:42:00,48.0,30.0,-100.00,SW,233,7.0,13.0,50,0.00,,,0.10,,2013-03-12 20:42:00,
2013-03-12 16:53:00,48.0,30.0,-100.00,SW,233,7.0,13.0,50,0.00,,,0.10,,2013-03-12 20:53:00,
2013-03-12 17:03:00,48.0,30.0,-100.00,SW,233,7.0,13.0,50,0.00,,,0.10,,2013-03-12 21:03:00,
2013-03-12 17:13:00,48.0,30.0,-100.00,SW,233,7.0,13.0,50,0.00,,,0.10,,2013-03-12 21:13:00,
2013-03-12 17:43:00,47.0,28.0,-100.00,West,270,5.0,13.0,47,0.00,,,0.04,,2013-03-12 21:43:00,
2013-03-12 17:53:00,47.0,28.0,-100.00,West,270,5.0,13.0,47,0.00,,,0.04,,2013-03-12 21:53:00,
2013-03-12 18:03:00,47.0,28.0,-100.00,West,270,5.0,13.0,47,0.00,,,0.04,,2013-03-12 22:03:00,
2013-03-12 18:13:00,47.0,28.0,-100.00,West,270,5.0,13.0,47,0.00,,,0.04,,2013-03-12 22:13:00,
2013-03-12 18:43:00,48.0,28.0,-100.00,WSW,256,5.0,11.0,46,0.00,,,0.01,,2013-03-12 22:43:00,
2013-03-12 18:54:00,48.0,28.0,-100.00,WSW,256,5.0,11.0,46,0.00,,,0.01,,2013-03-12 22:54:00,
2013-03-12 19:03:00,48.0,28.0,-100.00,WSW,256,5.0,11.0,46,0.00,,,0.01,,2013-03-12 23:03:00,
2013-03-12 19:12:00,48.0,28.0,-100.00,WSW,256,5.0,11.0,46,0.00,,,0.01,,2013-03-12 23:12:00,
2013-03-12 19:34:00,45.0,27.0,-100.00,North,352,3.0,12.0,49,0.00,,,0.01,,2013-03-12 23:34:00,
2013-03-12 19:43:00,45.0,27.0,-100.00,North,352,3.0,12.0,49,0.00,,,0.01,,2013-03-12 23:43:00,
2013-03-12 19:53:00,45.0,27.0,-100.00,North,352,3.0,12.0,49,0.00,,,0.01,,2013-03-12 23:53:00,
2013-03-12 20:03:00,45.0,27.0,-100.00,North,352,3.0,12.0,49,0.00,,,0.01,,2013-03-13 00:03:00,
2013-03-12 20:13:00,45.0,27.0,-100.00,North,352,3.0,12.0,49,0.00,,,0.01,,2013-03-13 00:13:00,
2013-03-12 20:42:00,39.0,30.0,-100.00,ESE,117,1.0,5.0,71,0.00,,,0.01,,2013-03-13 00:42:00,
2013-03-12 20:53:00,39.0,30.0,-100.00,ESE,117,1.0,5.0,71,0.00,,,0.01,,2013-03-13 00:53:00,
2013-03-12 21:03:00,39.0,30.0,-100.00,ESE,117,1.0,5.0,71,0.00,,,0.01,,2013-03-13 01:03:00,
2013-03-12 21:13:00,39.0,30.0,-100.00,ESE,117,1.0,5.0,71,0.00,,,0.01,,2013-03-13 01:13:00,
2013-03-12 21:33:00,35.0,31.0,-100.00,East,95,0.0,3.0,86,0.00,,,0.01,,2013-03-13 01:33:00,
2013-03-12 21:43:00,35.0,31.0,-100.00,East,95,0.0,3.0,86,0.00,,,0.01,,2013-03-13 01:43:00,
2013-03-12 21:53:00,35.0,31.0,-100.00,East,95,0.0,3.0,86,0.00,,,0.01,,2013-03-13 01:53:00,
2013-03-12 22:03:00,35.0,31.0,-100.00,East,95,0.0,3.0,86,0.00,,,0.01,,2013-03-13 02:03:00,
2013-03-12 22:12:00,35.0,31.0,-100.00,East,95,0.0,3.0,86,0.00,,,0.01,,2013-03-13 02:12:00,
2013-03-12 22:43:00,32.0,30.0,-100.00,ENE,75,0.0,0.0,92,0.00,,,0.01,,2013-03-13 02:43:00,
2013-03-12 22:53:00,32.0,30.0,-100.00,ENE,75,0.0,0.0,92,0.00,,,0.01,,2013-03-13 02:53:00,
2013-03-12 23:02:00,32.0,30.0,-100.00,ENE,75,0.0,0.0,92,0.00,,,0.01,,2013-03-13 03:02:00,
2013-03-12 23:13:00,32.0,30.0,-100.00,ENE,75,0.0,0.0,92,0.00,,,0.01,,2013-03-13 03:13:00,
2013-03-12 23:33:00,31.0,29.0,-100.00,ESE,117,0.0,2.0,94,0.00,,,0.01,,2013-03-13 03:33:00,
2013-03-12 23:42:00,31.0,29.0,-100.00,ESE,117,0.0,2.0,94,0.00,,,0.01,,2013-03-13 03:42:00,
2013-03-12 23:53:00,31.0,29.0,-100.00,ESE,117,0.0,2.0,94,0.00,,,0.01,,2013-03-13 03:53:00,